Location: Caltech
(34.1382°N, 118.1253°W)
Time: 12:08:16
(UTC-07:00)

Iridium 59 - Visible Passes

Search period start: 23 June 2017 00:00
Search period end: 03 July 2017 00:00
Orbit: 776 x 779 km, 86.4° (Epoch: 22 June)

Date Brightness Start Highest point End Pass type
(mag) Time Alt. Az. Time Alt. Az. Time Alt. Az.
23 Jun 7.2 00:45:18 16° ENE 00:45:18 16° ENE 00:47:45 10° NE visible
23 Jun 5.9 02:25:47 39° NW 02:25:47 39° NW 02:29:43 10° NNW visible
24 Jun 5.6 01:52:24 54° N 01:52:24 54° N 01:56:26 10° N visible
25 Jun 6.1 01:19:01 40° NE 01:19:01 40° NE 01:22:45 10° NNE visible
25 Jun 7.1 02:59:29 15° WNW 02:59:29 15° WNW 03:01:43 10° NW visible
26 Jun 6.8 00:45:37 23° ENE 00:45:37 23° ENE 00:48:36 10° NNE visible
26 Jun 6.5 02:26:06 27° WNW 02:26:06 27° WNW 02:29:28 10° NNW visible
27 Jun 7.4 00:12:14 12° ENE 00:12:14 12° ENE 00:13:29 10° NE visible
27 Jun 5.9 01:52:42 43° NW 01:52:42 43° NW 01:56:26 10° N visible
28 Jun 5.9 01:19:18 46° NNE 01:19:18 46° NNE 01:22:59 10° N visible
29 Jun 6.5 00:45:53 31° NE 00:45:53 31° NE 00:49:09 10° NNE visible
29 Jun 6.9 02:26:21 18° WNW 02:26:21 18° WNW 02:28:56 10° NNW visible
30 Jun 7.1 00:12:28 18° ENE 00:12:28 18° ENE 00:14:44 10° NE visible
30 Jun 6.4 01:52:56 31° NW 01:52:56 31° NW 01:56:18 10° NNW visible
01 Jul 6.0 01:19:31 44° NNW 01:19:31 44° NNW 01:23:05 10° N visible
02 Jul 6.2 00:46:05 38° NNE 00:46:05 38° NNE 00:49:30 10° NNE visible
02 Jul 7.3 02:26:33 12° WNW 02:26:33 12° WNW 02:27:53 10° NW visible
